| time (UTC) | temp C | wind direction | speed KPH | gust KPH | rain 1hr cm | rain 24hr cm | rain mn cm | humidity % | barometer mb |
| 20260510072712 | 18 | 172 | 20.9 | 32.2 | 0.00 | 0.00 | 0.00 | 67 | 1029.8 |
| 20260510072213 | 18 | 163 | 22.5 | 35.4 | 0.00 | 0.00 | 0.00 | 67 | 1029.6 |
| 20260510071713 | 18 | 164 | 16.1 | 29.0 | 0.00 | 0.00 | 0.00 | 67 | 1029.3 |
| 20260510071212 | 18 | 168 | 25.7 | 37.0 | 0.00 | 0.00 | 0.00 | 67 | 1029.3 |
| 20260510070213 | 18 | 168 | 14.5 | 29.0 | 0.00 | 0.00 | 0.00 | 67 | 1029.3 |
| 20260510065713 | 18 | 169 | 17.7 | 32.2 | 0.00 | 0.00 | 0.00 | 66 | 1029.2 |
| 20260510065213 | 18 | 179 | 25.7 | 33.8 | 0.00 | 0.00 | 0.00 | 66 | 1029.1 |
| 20260510064712 | 18 | 168 | 22.5 | 32.2 | 0.00 | 0.00 | 0.00 | 66 | 1029.0 |
| 20260510064213 | 19 | 165 | 14.5 | 27.4 | 0.00 | 0.00 | 0.00 | 66 | 1028.8 |
| 20260510063713 | 19 | 186 | 19.3 | 29.0 | 0.00 | 0.00 | 0.00 | 66 | 1028.9 |
| 20260510063213 | 19 | 177 | 20.9 | 37.0 | 0.00 | 0.00 | 0.00 | 67 | 1028.9 |
| 20260510061713 | 19 | 165 | 22.5 | 37.0 | 0.00 | 0.00 | 0.00 | 67 | 1028.8 |
| 20260510061212 | 19 | 157 | 16.1 | 33.8 | 0.00 | 0.00 | 0.00 | 67 | 1028.7 |
| 20260510060713 | 20 | 162 | 25.7 | 41.8 | 0.00 | 0.00 | 0.00 | 66 | 1028.7 |
| 20260510055713 | 20 | 148 | 25.7 | 35.4 | 0.00 | 0.00 | 0.00 | 66 | 1028.5 |
| 20260510054713 | 20 | 167 | 16.1 | 35.4 | 0.00 | 0.00 | 0.00 | 66 | 1028.4 |
| 20260510054213 | 20 | 174 | 19.3 | 33.8 | 0.00 | 0.00 | 0.00 | 66 | 1028.4 |
| 20260510053713 | 20 | 164 | 27.4 | 38.6 | 0.00 | 0.00 | 0.00 | 66 | 1028.4 |
| 20260510053213 | 20 | 183 | 19.3 | 32.2 | 0.00 | 0.00 | 0.00 | 66 | 1028.5 |
| 20260510052713 | 20 | 173 | 24.1 | 38.6 | 0.00 | 0.00 | 0.00 | 65 | 1028.3 |
| 20260510052212 | 20 | 186 | 20.9 | 35.4 | 0.00 | 0.00 | 0.00 | 65 | 1028.4 |
| 20260510051712 | 20 | 168 | 20.9 | 35.4 | 0.00 | 0.00 | 0.00 | 65 | 1028.2 |
| 20260510051213 | 20 | 181 | 25.7 | 37.0 | 0.00 | 0.00 | 0.00 | 64 | 1028.3 |
| 20260510050713 | 20 | 153 | 22.5 | 38.6 | 0.00 | 0.00 | 0.00 | 63 | 1028.1 |
| 20260510050213 | 20 | 173 | 19.3 | 32.2 | 0.00 | 0.00 | 0.00 | 62 | 1028.1 |
| 20260510045713 | 20 | 166 | 27.4 | 35.4 | 0.00 | 0.00 | 0.00 | 61 | 1028.4 |
| 20260510045213 | 20 | 159 | 25.7 | 33.8 | 0.00 | 0.00 | 0.00 | 60 | 1028.0 |
| 20260510044713 | 20 | 183 | 29.0 | 37.0 | 0.00 | 0.00 | 0.00 | 60 | 1028.1 |
| 20260510044213 | 20 | 170 | 25.7 | 33.8 | 0.00 | 0.00 | 0.00 | 61 | 1028.1 |
| 20260510043713 | 21 | 130 | 20.9 | 33.8 | 0.00 | 0.00 | 0.00 | 61 | 1027.9 |
| 20260510043213 | 21 | 176 | 24.1 | 33.8 | 0.00 | 0.00 | 0.00 | 60 | 1028.0 |
| 20260510042713 | 21 | 173 | 16.1 | 32.2 | 0.00 | 0.00 | 0.00 | 62 | 1028.1 |
| 20260510042212 | 21 | 165 | 25.7 | 37.0 | 0.00 | 0.00 | 0.00 | 61 | 1028.0 |
| 20260510041712 | 21 | 161 | 19.3 | 32.2 | 0.00 | 0.00 | 0.00 | 60 | 1028.1 |
| 20260510041213 | 21 | 150 | 22.5 | 32.2 | 0.00 | 0.00 | 0.00 | 59 | 1028.1 |
| 20260510040712 | 21 | 153 | 14.5 | 25.7 | 0.00 | 0.00 | 0.00 | 59 | 1028.2 |
| 20260510040213 | 21 | 148 | 19.3 | 32.2 | 0.00 | 0.00 | 0.00 | 58 | 1028.2 |
| 20260510035712 | 21 | 171 | 19.3 | 29.0 | 0.00 | 0.00 | 0.00 | 58 | 1028.0 |
| 20260510035212 | 21 | 184 | 16.1 | 33.8 | 0.00 | 0.00 | 0.00 | 57 | 1028.1 |
| 20260510034713 | 21 | 171 | 19.3 | 33.8 | 0.00 | 0.00 | 0.00 | 56 | 1028.0 |
| 20260510034212 | 21 | 163 | 20.9 | 29.0 | 0.00 | 0.00 | 0.00 | 56 | 1028.2 |
| 20260510033713 | 21 | 164 | 20.9 | 29.0 | 0.00 | 0.00 | 0.00 | 57 | 1028.1 |
| 20260510033212 | 21 | 176 | 24.1 | 32.2 | 0.00 | 0.00 | 0.00 | 56 | 1028.0 |
| 20260510032712 | 21 | 150 | 25.7 | 35.4 | 0.00 | 0.00 | 0.00 | 57 | 1028.0 |
| 20260510031712 | 21 | 169 | 11.3 | 25.7 | 0.00 | 0.00 | 0.00 | 58 | 1028.2 |
| 20260510031213 | 21 | 143 | 14.5 | 32.2 | 0.00 | 0.00 | 0.00 | 58 | 1028.2 |
| 20260510030712 | 22 | 161 | 19.3 | 29.0 | 0.00 | 0.00 | 0.00 | 56 | 1028.0 |
| 20260510030212 | 22 | 142 | 11.3 | 24.1 | 0.00 | 0.00 | 0.00 | 54 | 1028.1 |
| 20260510025713 | 22 | 162 | 16.1 | 22.5 | 0.00 | 0.00 | 0.00 | 53 | 1028.2 |
| 20260510025213 | 22 | 184 | 14.5 | 24.1 | 0.00 | 0.00 | 0.00 | 51 | 1028.2 |
| 20260510024713 | 22 | 167 | 19.3 | 29.0 | 0.00 | 0.00 | 0.00 | 52 | 1028.2 |
| 20260510024213 | 22 | 141 | 14.5 | 25.7 | 0.00 | 0.00 | 0.00 | 52 | 1028.3 |
| 20260510023712 | 22 | 154 | 20.9 | 25.7 | 0.00 | 0.00 | 0.00 | 51 | 1028.4 |
| 20260510023213 | 22 | 155 | 16.1 | 25.7 | 0.00 | 0.00 | 0.00 | 52 | 1028.3 |
| 20260510022712 | 22 | 160 | 19.3 | 25.7 | 0.00 | 0.00 | 0.00 | 51 | 1028.6 |
| 20260510022212 | 22 | 160 | 17.7 | 24.1 | 0.00 | 0.00 | 0.00 | 52 | 1028.5 |
| 20260510021712 | 22 | 154 | 17.7 | 24.1 | 0.00 | 0.00 | 0.00 | 50 | 1028.6 |
| 20260510021213 | 22 | 154 | 19.3 | 27.4 | 0.00 | 0.00 | 0.00 | 47 | 1028.6 |
| 20260510020712 | 23 | 152 | 19.3 | 29.0 | 0.00 | 0.00 | 0.00 | 45 | 1028.5 |
| 20260510015212 | 24 | 145 | 1.6 | 8.0 | 0.00 | 0.00 | 0.00 | 46 | 1028.6 |
| 20260510014713 | 24 | 329 | 0.0 | 4.8 | 0.00 | 0.00 | 0.00 | 46 | 1028.9 |
| 20260510014212 | 24 | 41 | 1.6 | 4.8 | 0.00 | 0.00 | 0.00 | 46 | 1029.1 |
| 20260510013713 | 23 | 94 | 1.6 | 11.3 | 0.00 | 0.00 | 0.00 | 47 | 1029.1 |
| 20260510012712 | 23 | 135 | 0.0 | 3.2 | 0.00 | 0.00 | 0.00 | 48 | 1029.2 |
| 20260510012213 | 23 | 130 | 1.6 | 4.8 | 0.00 | 0.00 | 0.00 | 50 | 1029.0 |
| 20260510011712 | 22 | 97 | 0.0 | 3.2 | 0.00 | 0.00 | 0.00 | 52 | 1029.1 |
| 20260510011212 | 22 | 104 | 0.0 | 1.6 | 0.00 | 0.00 | 0.00 | 54 | 1029.1 |
| 20260510010712 | 21 | 74 | 0.0 | 1.6 | 0.00 | 0.00 | 0.00 | 55 | 1029.4 |
| 20260510010212 | 21 | 51 | 0.0 | 4.8 | 0.00 | 0.00 | 0.00 | 55 | 1029.2 |
| 20260510005712 | 21 | 39 | 1.6 | 4.8 | 0.00 | 0.00 | 0.00 | 55 | 1029.4 |
| 20260510005212 | 21 | 344 | 1.6 | 4.8 | 0.00 | 0.00 | 0.00 | 56 | 1029.3 |
| 20260510004712 | 20 | 358 | 4.8 | 8.0 | 0.00 | 0.00 | 0.00 | 56 | 1029.4 |
| 20260510004212 | 20 | 358 | 1.6 | 4.8 | 0.00 | 0.00 | 0.00 | 57 | 1029.3 |
| 20260510003712 | 20 | 357 | 3.2 | 9.7 | 0.00 | 0.00 | 0.00 | 59 | 1029.3 |
| 20260510003212 | 20 | 349 | 0.0 | 1.6 | 0.00 | 0.00 | 0.00 | 60 | 1029.2 |
| 20260510002712 | 19 | 298 | 0.0 | 1.6 | 0.00 | 0.00 | 0.00 | 61 | 1029.2 |
| 20260510001712 | 18 | 355 | 4.8 | 8.0 | 0.00 | 0.00 | 0.00 | 63 | 1029.3 |
| 20260510001212 | 18 | 326 | 6.4 | 8.0 | 0.00 | 0.00 | 0.00 | 63 | 1029.2 |
| 20260510000712 | 18 | 347 | 4.8 | 8.0 | 0.00 | 0.00 | 0.00 | 64 | 1029.1 |
| 20260510000212 | 17 | 330 | 8.0 | 11.3 | 0.00 | 0.00 | 0.00 | 65 | 1029.1 |
| 20260509235712 | 17 | 324 | 4.8 | 9.7 | 0.00 | 0.00 | 0.00 | 65 | 1029.1 |
| 20260509234712 | 17 | 340 | 3.2 | 9.7 | 0.00 | 0.00 | 0.00 | 66 | 1029.1 |
| 20260509233712 | 17 | 341 | 8.0 | 11.3 | 0.00 | 0.00 | 0.00 | 66 | 1029.0 |
| 20260509233212 | 16 | 325 | 8.0 | 11.3 | 0.00 | 0.00 | 0.00 | 67 | 1028.9 |
| 20260509232712 | 16 | 333 | 8.0 | 12.9 | 0.00 | 0.00 | 0.00 | 67 | 1028.8 |
| 20260509232212 | 16 | 336 | 9.7 | 12.9 | 0.00 | 0.00 | 0.00 | 68 | 1029.1 |
| 20260509231712 | 16 | 328 | 11.3 | 12.9 | 0.00 | 0.00 | 0.00 | 70 | 1028.9 |
| 20260509231212 | 15 | 319 | 9.7 | 12.9 | 0.00 | 0.00 | 0.00 | 71 | 1029.0 |
| 20260509230713 | 15 | 315 | 9.7 | 12.9 | 0.00 | 0.00 | 0.00 | 71 | 1029.1 |
| 20260509230212 | 15 | 320 | 11.3 | 12.9 | 0.00 | 0.00 | 0.00 | 71 | 1028.8 |
| 20260509225711 | 15 | 315 | 11.3 | 12.9 | 0.00 | 0.00 | 0.00 | 72 | 1029.1 |
| 20260509225212 | 15 | 319 | 11.3 | 14.5 | 0.00 | 0.00 | 0.00 | 73 | 1029.1 |
| 20260509224712 | 14 | 323 | 11.3 | 12.9 | 0.00 | 0.00 | 0.00 | 73 | 1029.2 |
| 20260509224213 | 14 | 323 | 11.3 | 14.5 | 0.00 | 0.00 | 0.00 | 74 | 1029.2 |
| 20260509223712 | 13 | 312 | 12.9 | 14.5 | 0.00 | 0.00 | 0.00 | 74 | 1029.0 |
| 20260509223212 | 13 | 315 | 12.9 | 14.5 | 0.00 | 0.00 | 0.00 | 74 | 1029.0 |
| 20260509222712 | 13 | 312 | 9.7 | 11.3 | 0.00 | 0.00 | 0.00 | 74 | 1028.9 |
| 20260509221712 | 14 | 321 | 11.3 | 14.5 | 0.00 | 0.00 | 0.00 | 73 | 1028.8 |
| 20260509221212 | 14 | 317 | 9.7 | 11.3 | 0.00 | 0.00 | 0.00 | 74 | 1028.9 |
| 20260509220712 | 13 | 316 | 9.7 | 11.3 | 0.00 | 0.00 | 0.00 | 74 | 1029.0 |
| 20260509220212 | 13 | 285 | 11.3 | 12.9 | 0.00 | 0.00 | 0.00 | 74 | 1028.7 |
| 20260509215212 | 13 | 277 | 11.3 | 12.9 | 0.00 | 0.00 | 0.00 | 76 | 1028.8 |
| 20260509214712 | 13 | 278 | 11.3 | 12.9 | 0.00 | 0.00 | 0.00 | 76 | 1028.5 |
| 20260509214212 | 13 | 277 | 11.3 | 12.9 | 0.00 | 0.00 | 0.00 | 78 | 1028.5 |
| 20260509213212 | 12 | 275 | 12.9 | 16.1 | 0.00 | 0.00 | 0.00 | 78 | 1028.5 |
| 20260509212712 | 12 | 282 | 12.9 | 14.5 | 0.00 | 0.00 | 0.00 | 78 | 1028.3 |
| 20260509212212 | 12 | 288 | 11.3 | 14.5 | 0.00 | 0.00 | 0.00 | 77 | 1028.3 |
| 20260509211212 | 12 | 285 | 12.9 | 12.9 | 0.00 | 0.00 | 0.00 | 76 | 1028.1 |
| 20260509210712 | 13 | 290 | 11.3 | 12.9 | 0.00 | 0.00 | 0.00 | 76 | 1028.0 |
| 20260509205712 | 13 | 272 | 9.7 | 12.9 | 0.00 | 0.00 | 0.00 | 78 | 1027.8 |
| 20260509205212 | 13 | 260 | 9.7 | 11.3 | 0.00 | 0.00 | 0.00 | 78 | 1027.8 |
| 20260509204712 | 13 | 256 | 9.7 | 11.3 | 0.00 | 0.00 | 0.00 | 79 | 1027.8 |
| 20260509204212 | 13 | 255 | 9.7 | 12.9 | 0.00 | 0.00 | 0.00 | 79 | 1028.0 |
| 20260509203712 | 12 | 259 | 9.7 | 12.9 | 0.00 | 0.00 | 0.00 | 80 | 1027.8 |
| 20260509203212 | 12 | 260 | 11.3 | 14.5 | 0.00 | 0.00 | 0.00 | 80 | 1027.6 |
| 20260509202712 | 12 | 258 | 14.5 | 16.1 | 0.00 | 0.00 | 0.00 | 80 | 1027.5 |
| 20260509202212 | 12 | 255 | 14.5 | 16.1 | 0.00 | 0.00 | 0.00 | 81 | 1027.5 |
| 20260509201212 | 12 | 268 | 14.5 | 16.1 | 0.00 | 0.00 | 0.00 | 81 | 1027.4 |
| 20260509200711 | 12 | 274 | 14.5 | 16.1 | 0.00 | 0.00 | 0.00 | 81 | 1027.6 |
| 20260509200212 | 11 | 288 | 14.5 | 16.1 | 0.00 | 0.00 | 0.00 | 81 | 1027.2 |
| 20260509194712 | 12 | 306 | 14.5 | 19.3 | 0.00 | 0.00 | 0.00 | 78 | 1027.3 |
| 20260509194212 | 12 | 305 | 14.5 | 19.3 | 0.00 | 0.00 | 0.00 | 77 | 1027.1 |
| 20260509193712 | 12 | 309 | 14.5 | 16.1 | 0.00 | 0.00 | 0.00 | 76 | 1027.2 |
| 20260509193212 | 12 | 288 | 11.3 | 12.9 | 0.00 | 0.00 | 0.00 | 76 | 1027.2 |
| 20260509192712 | 12 | 287 | 11.3 | 12.9 | 0.00 | 0.00 | 0.00 | 76 | 1026.8 |
| 20260509192212 | 12 | 283 | 11.3 | 14.5 | 0.00 | 0.00 | 0.00 | 75 | 1026.9 |
| 20260509191712 | 12 | 296 | 11.3 | 12.9 | 0.00 | 0.00 | 0.00 | 75 | 1026.8 |
| 20260509191212 | 13 | 301 | 11.3 | 12.9 | 0.00 | 0.00 | 0.00 | 75 | 1026.7 |
| 20260509190212 | 13 | 308 | 8.0 | 9.7 | 0.00 | 0.00 | 0.00 | 73 | 1026.7 |
| 20260509185711 | 13 | 284 | 4.8 | 8.0 | 0.00 | 0.00 | 0.00 | 73 | 1026.5 |
| 20260509185212 | 13 | 249 | 3.2 | 9.7 | 0.00 | 0.00 | 0.00 | 74 | 1026.6 |
| 20260509184711 | 13 | 232 | 6.4 | 11.3 | 0.00 | 0.00 | 0.00 | 74 | 1026.6 |
| 20260509184212 | 13 | 245 | 9.7 | 12.9 | 0.00 | 0.00 | 0.00 | 74 | 1026.4 |
| 20260509183712 | 13 | 261 | 11.3 | 19.3 | 0.00 | 0.00 | 0.00 | 74 | 1026.4 |
| 20260509183212 | 13 | 254 | 16.1 | 19.3 | 0.00 | 0.00 | 0.00 | 73 | 1026.2 |
| 20260509182712 | 13 | 258 | 11.3 | 16.1 | 0.00 | 0.00 | 0.00 | 73 | 1026.1 |
| 20260509182212 | 13 | 267 | 14.5 | 19.3 | 0.00 | 0.00 | 0.00 | 74 | 1026.1 |
| 20260509180712 | 13 | 267 | 11.3 | 16.1 | 0.00 | 0.00 | 0.00 | 73 | 1026.1 |
| 20260509180212 | 13 | 269 | 14.5 | 16.1 | 0.00 | 0.00 | 0.00 | 73 | 1026.1 |
| 20260509175711 | 13 | 267 | 12.9 | 19.3 | 0.00 | 0.00 | 0.00 | 73 | 1026.0 |
| 20260509175211 | 13 | 266 | 19.3 | 20.9 | 0.00 | 0.00 | 0.00 | 74 | 1026.0 |
| 20260509174712 | 13 | 274 | 19.3 | 22.5 | 0.00 | 0.00 | 0.00 | 73 | 1025.8 |
| 20260509174211 | 13 | 272 | 14.5 | 19.3 | 0.00 | 0.00 | 0.00 | 73 | 1026.0 |
| 20260509173711 | 13 | 273 | 14.5 | 19.3 | 0.00 | 0.00 | 0.00 | 73 | 1025.9 |
| 20260509173212 | 13 | 267 | 16.1 | 19.3 | 0.00 | 0.00 | 0.00 | 72 | 1025.9 |
| 20260509172712 | 13 | 260 | 14.5 | 19.3 | 0.00 | 0.00 | 0.00 | 72 | 1026.2 |
| 20260509172211 | 14 | 271 | 14.5 | 16.1 | 0.00 | 0.00 | 0.00 | 71 | 1026.3 |
| 20260509171712 | 14 | 270 | 11.3 | 14.5 | 0.00 | 0.00 | 0.00 | 71 | 1026.2 |
| 20260509171212 | 14 | 266 | 11.3 | 12.9 | 0.00 | 0.00 | 0.00 | 72 | 1026.0 |
| 20260509170712 | 14 | 258 | 9.7 | 12.9 | 0.00 | 0.00 | 0.00 | 72 | 1026.1 |
| 20260509170212 | 14 | 253 | 11.3 | 12.9 | 0.00 | 0.00 | 0.00 | 72 | 1026.1 |
| 20260509165711 | 14 | 251 | 11.3 | 14.5 | 0.00 | 0.00 | 0.00 | 72 | 1026.2 |
| 20260509165211 | 14 | 250 | 12.9 | 14.5 | 0.00 | 0.00 | 0.00 | 73 | 1025.9 |
| 20260509164211 | 14 | 241 | 11.3 | 12.9 | 0.00 | 0.00 | 0.00 | 73 | 1026.1 |
| 20260509163711 | 14 | 245 | 11.3 | 12.9 | 0.00 | 0.00 | 0.00 | 72 | 1026.1 |
| 20260509162711 | 14 | 240 | 11.3 | 14.5 | 0.00 | 0.00 | 0.00 | 72 | 1026.1 |
| 20260509161711 | 14 | 236 | 12.9 | 14.5 | 0.00 | 0.00 | 0.00 | 72 | 1026.2 |
| 20260509160711 | 15 | 239 | 12.9 | 14.5 | 0.00 | 0.00 | 0.00 | 71 | 1026.2 |
| 20260509155711 | 15 | 235 | 12.9 | 14.5 | 0.00 | 0.00 | 0.00 | 71 | 1026.3 |
| 20260509155212 | 15 | 226 | 12.9 | 14.5 | 0.00 | 0.00 | 0.00 | 73 | 1026.4 |
| 20260509154212 | 14 | 225 | 14.5 | 14.5 | 0.00 | 0.00 | 0.00 | 75 | 1026.3 |
| 20260509153212 | 14 | 235 | 12.9 | 14.5 | 0.00 | 0.00 | 0.00 | 74 | 1026.4 |
| 20260509152711 | 14 | 237 | 12.9 | 16.1 | 0.00 | 0.00 | 0.00 | 74 | 1026.3 |
| 20260509152211 | 14 | 239 | 12.9 | 14.5 | 0.00 | 0.00 | 0.00 | 74 | 1026.2 |
| 20260509151712 | 14 | 238 | 12.9 | 14.5 | 0.00 | 0.00 | 0.00 | 74 | 1026.4 |
| 20260509151211 | 14 | 235 | 12.9 | 14.5 | 0.00 | 0.00 | 0.00 | 74 | 1026.2 |
| 20260509150711 | 14 | 238 | 12.9 | 14.5 | 0.00 | 0.00 | 0.00 | 74 | 1026.3 |
| 20260509145211 | 14 | 235 | 12.9 | 14.5 | 0.00 | 0.00 | 0.00 | 74 | 1026.2 |
| 20260509144712 | 14 | 232 | 12.9 | 16.1 | 0.00 | 0.00 | 0.00 | 75 | 1026.2 |
| 20260509144212 | 14 | 233 | 14.5 | 16.1 | 0.00 | 0.00 | 0.00 | 75 | 1026.3 |
| 20260509143711 | 14 | 235 | 12.9 | 14.5 | 0.00 | 0.00 | 0.00 | 75 | 1026.4 |
| 20260509143211 | 14 | 238 | 12.9 | 14.5 | 0.00 | 0.00 | 0.00 | 75 | 1026.3 |
| 20260509142711 | 13 | 239 | 12.9 | 16.1 | 0.00 | 0.00 | 0.00 | 75 | 1026.3 |
| 20260509141712 | 13 | 242 | 12.9 | 14.5 | 0.00 | 0.00 | 0.00 | 75 | 1026.5 |
| 20260509141211 | 13 | 247 | 12.9 | 14.5 | 0.00 | 0.00 | 0.00 | 75 | 1026.3 |
| 20260509140712 | 13 | 248 | 14.5 | 16.1 | 0.00 | 0.00 | 0.00 | 75 | 1026.2 |
| 20260509140211 | 13 | 245 | 14.5 | 16.1 | 0.00 | 0.00 | 0.00 | 75 | 1026.2 |
| 20260509135712 | 13 | 247 | 14.5 | 14.5 | 0.00 | 0.00 | 0.00 | 75 | 1026.5 |
| 20260509134711 | 14 | 247 | 14.5 | 16.1 | 0.00 | 0.00 | 0.00 | 75 | 1026.3 |
| 20260509133712 | 14 | 243 | 11.3 | 14.5 | 0.00 | 0.00 | 0.00 | 75 | 1026.3 |
| 20260509132711 | 13 | 247 | 11.3 | 14.5 | 0.00 | 0.00 | 0.00 | 75 | 1026.3 |
| 20260509132211 | 14 | 251 | 11.3 | 12.9 | 0.00 | 0.00 | 0.00 | 74 | 1026.4 |
| 20260509131711 | 14 | 248 | 11.3 | 14.5 | 0.00 | 0.00 | 0.00 | 74 | 1026.3 |
| 20260509131211 | 14 | 248 | 11.3 | 14.5 | 0.00 | 0.00 | 0.00 | 74 | 1026.5 |
| 20260509130711 | 14 | 250 | 11.3 | 16.1 | 0.00 | 0.00 | 0.00 | 74 | 1026.6 |
| 20260509130211 | 14 | 248 | 12.9 | 14.5 | 0.00 | 0.00 | 0.00 | 74 | 1026.4 |
| 20260509125711 | 14 | 250 | 12.9 | 14.5 | 0.00 | 0.00 | 0.00 | 73 | 1026.5 |
| 20260509125211 | 14 | 251 | 12.9 | 16.1 | 0.00 | 0.00 | 0.00 | 73 | 1026.4 |
| 20260509124711 | 14 | 248 | 14.5 | 16.1 | 0.00 | 0.00 | 0.00 | 73 | 1026.5 |
| 20260509124211 | 14 | 250 | 12.9 | 14.5 | 0.00 | 0.00 | 0.00 | 73 | 1026.4 |
| 20260509123711 | 14 | 257 | 11.3 | 12.9 | 0.00 | 0.00 | 0.00 | 72 | 1026.6 |
| 20260509123211 | 14 | 259 | 11.3 | 16.1 | 0.00 | 0.00 | 0.00 | 72 | 1026.6 |
| 20260509122711 | 14 | 254 | 14.5 | 19.3 | 0.00 | 0.00 | 0.00 | 71 | 1026.5 |
| 20260509121211 | 15 | 250 | 12.9 | 16.1 | 0.00 | 0.00 | 0.00 | 71 | 1026.8 |
| 20260509115711 | 15 | 246 | 14.5 | 19.3 | 0.00 | 0.00 | 0.00 | 70 | 1026.4 |
| 20260509115211 | 15 | 248 | 11.3 | 12.9 | 0.00 | 0.00 | 0.00 | 70 | 1026.7 |
| 20260509114711 | 15 | 251 | 11.3 | 14.5 | 0.00 | 0.00 | 0.00 | 70 | 1026.6 |
| 20260509113711 | 15 | 250 | 12.9 | 16.1 | 0.00 | 0.00 | 0.00 | 69 | 1026.4 |
| 20260509112211 | 15 | 254 | 12.9 | 12.9 | 0.00 | 0.00 | 0.00 | 68 | 1026.5 |
| 20260509111211 | 16 | 255 | 11.3 | 12.9 | 0.00 | 0.00 | 0.00 | 67 | 1026.3 |
| 20260509110711 | 16 | 259 | 9.7 | 12.9 | 0.00 | 0.00 | 0.00 | 66 | 1026.6 |
| 20260509104711 | 17 | 224 | 9.7 | 11.3 | 0.00 | 0.00 | 0.00 | 64 | 1026.2 |
| 20260509104211 | 17 | 191 | 9.7 | 12.9 | 0.00 | 0.00 | 0.00 | 64 | 1026.3 |
| 20260509103712 | 17 | 199 | 11.3 | 14.5 | 0.00 | 0.00 | 0.00 | 63 | 1026.1 |
| 20260509103211 | 17 | 196 | 11.3 | 14.5 | 0.00 | 0.00 | 0.00 | 63 | 1026.3 |
| 20260509102711 | 17 | 187 | 12.9 | 14.5 | 0.00 | 0.00 | 0.00 | 63 | 1026.0 |
| 20260509102211 | 17 | 196 | 11.3 | 14.5 | 0.00 | 0.00 | 0.00 | 63 | 1026.1 |
| 20260509101711 | 17 | 189 | 11.3 | 14.5 | 0.00 | 0.00 | 0.00 | 63 | 1025.9 |
| 20260509100711 | 17 | 192 | 9.7 | 12.9 | 0.00 | 0.00 | 0.00 | 63 | 1026.0 |
| 20260509100211 | 17 | 193 | 9.7 | 12.9 | 0.00 | 0.00 | 0.00 | 64 | 1026.2 |
| 20260509095211 | 17 | 194 | 9.7 | 14.5 | 0.00 | 0.00 | 0.00 | 63 | 1025.7 |
| 20260509094711 | 17 | 194 | 11.3 | 14.5 | 0.00 | 0.00 | 0.00 | 63 | 1025.7 |
| 20260509094211 | 17 | 188 | 9.7 | 12.9 | 0.00 | 0.00 | 0.00 | 63 | 1025.8 |
| 20260509093711 | 17 | 195 | 11.3 | 14.5 | 0.00 | 0.00 | 0.00 | 61 | 1025.7 |
| 20260509093210 | 17 | 181 | 11.3 | 16.1 | 0.00 | 0.00 | 0.00 | 61 | 1025.6 |
| 20260509092211 | 17 | 183 | 11.3 | 14.5 | 0.00 | 0.00 | 0.00 | 61 | 1025.6 |
| 20260509091711 | 17 | 188 | 11.3 | 14.5 | 0.00 | 0.00 | 0.00 | 61 | 1025.6 |
| 20260509091210 | 17 | 182 | 11.3 | 14.5 | 0.00 | 0.00 | 0.00 | 62 | 1025.6 |
| 20260509090710 | 17 | 182 | 9.7 | 12.9 | 0.00 | 0.00 | 0.00 | 62 | 1025.4 |
| 20260509090211 | 17 | 184 | 8.0 | 9.7 | 0.00 | 0.00 | 0.00 | 62 | 1025.5 |
| 20260509085710 | 17 | 180 | 8.0 | 9.7 | 0.00 | 0.00 | 0.00 | 62 | 1025.4 |
| 20260509085211 | 17 | 172 | 4.8 | 8.0 | 0.00 | 0.00 | 0.00 | 62 | 1025.3 |
| 20260509084711 | 17 | 172 | 4.8 | 11.3 | 0.00 | 0.00 | 0.00 | 61 | 1025.3 |
| 20260509084211 | 17 | 174 | 9.7 | 12.9 | 0.00 | 0.00 | 0.00 | 61 | 1025.4 |
| 20260509083710 | 17 | 177 | 9.7 | 11.3 | 0.00 | 0.00 | 0.00 | 62 | 1025.2 |
| 20260509083211 | 17 | 167 | 9.7 | 12.9 | 0.00 | 0.00 | 0.00 | 63 | 1025.1 |
| 20260509082711 | 17 | 157 | 11.3 | 14.5 | 0.00 | 0.00 | 0.00 | 62 | 1025.0 |
| 20260509082211 | 17 | 160 | 11.3 | 14.5 | 0.00 | 0.00 | 0.00 | 61 | 1025.4 |
| 20260509081711 | 17 | 158 | 11.3 | 14.5 | 0.00 | 0.00 | 0.00 | 61 | 1024.9 |
| 20260509081210 | 17 | 162 | 9.7 | 16.1 | 0.00 | 0.00 | 0.00 | 62 | 1024.9 |
| 20260509080711 | 17 | 157 | 11.3 | 14.5 | 0.00 | 0.00 | 0.00 | 61 | 1025.0 |
| 20260509080211 | 17 | 162 | 9.7 | 12.9 | 0.00 | 0.00 | 0.00 | 61 | 1024.7 |
| 20260509075711 | 17 | 167 | 8.0 | 11.3 | 0.00 | 0.00 | 0.00 | 62 | 1024.9 |
| 20260509075211 | 17 | 160 | 9.7 | 14.5 | 0.00 | 0.00 | 0.00 | 62 | 1024.9 |
| 20260509074711 | 17 | 160 | 8.0 | 16.1 | 0.00 | 0.00 | 0.00 | 61 | 1024.5 |
| 20260509073711 | 17 | 148 | 9.7 | 16.1 | 0.00 | 0.00 | 0.00 | 61 | 1024.5 |
| 20260509073210 | 17 | 159 | 9.7 | 12.9 | 0.00 | 0.00 | 0.00 | 60 | 1024.5 |